Meteo pe oră la Bolshoe Kuznechkovo

Astăzi, 10 Mai, Luni

Timp Temperatura Precipitaţii Vânt Presiune Umiditate
00:00 +3°C° 0 mm 1 m/s 745 mmHg 69%
01:00 +3°C° 0 mm 1 m/s 746 mmHg 69%
02:00 +3°C° 0 mm 1 m/s 746 mmHg 69%
03:00 +3°C° 0 mm 1 m/s 746 mmHg 68%
04:00 +3°C° 0 mm 1 m/s 747 mmHg 67%
05:00 +4°C° 0 mm 1 m/s 747 mmHg 66%
06:00 +6°C° 0 mm 1 m/s 747 mmHg 59%
07:00 +8°C° 0 mm 1 m/s 748 mmHg 52%
08:00 +11°C° 0 mm 1 m/s 748 mmHg 46%
09:00 +12°C° 0 mm 2 m/s 748 mmHg 43%
10:00 +13°C° 0 mm 2 m/s 748 mmHg 39%
11:00 +14°C° 0 mm 2 m/s 748 mmHg 36%
12:00 +15°C° 0 mm 2 m/s 748 mmHg 36%
13:00 +16°C° 0 mm 2 m/s 748 mmHg 35%
14:00 +16°C° 0 mm 2 m/s 748 mmHg 35%
15:00 +16°C° 0 mm 2 m/s 748 mmHg 38%
16:00 +16°C° 0 mm 2 m/s 748 mmHg 41%
17:00 +16°C° 0 mm 1 m/s 748 mmHg 45%
18:00 +14°C° 0 mm 1 m/s 748 mmHg 52%
19:00 +12°C° 0 mm 2 m/s 748 mmHg 60%
20:00 +9°C° 0 mm 2 m/s 748 mmHg 68%
21:00 +8°C° 0 mm 2 m/s 748 mmHg 69%
22:00 +8°C° 0 mm 1 m/s 749 mmHg 70%
23:00 +8°C° 0 mm 1 m/s 749 mmHg 71%

Mâine, 11 Mai, Marţi

Timp Temperatura Precipitaţii Vânt Presiune Umiditate
00:00 +7°C° 0 mm 1 m/s 749 mmHg 72%
01:00 +7°C° 0 mm 1 m/s 749 mmHg 73%
02:00 +6°C° 0 mm 1 m/s 749 mmHg 74%
03:00 +7°C° 0 mm 1 m/s 749 mmHg 73%
04:00 +7°C° 0 mm 1 m/s 749 mmHg 72%
05:00 +7°C° 0 mm 1 m/s 749 mmHg 71%
06:00 +9°C° 0 mm 1 m/s 750 mmHg 64%
07:00 +11°C° 0 mm 1 m/s 750 mmHg 57%
08:00 +13°C° 0 mm 1 m/s 750 mmHg 50%
09:00 +15°C° 0 mm 2 m/s 750 mmHg 46%
10:00 +16°C° 0 mm 2 m/s 750 mmHg 43%
11:00 +17°C° 0 mm 2 m/s 749 mmHg 40%
12:00 +18°C° 0 mm 3 m/s 749 mmHg 39%
13:00 +19°C° 0 mm 3 m/s 749 mmHg 39%
14:00 +19°C° 0 mm 3 m/s 749 mmHg 39%
15:00 +19°C° 0 mm 3 m/s 749 mmHg 43%
16:00 +18°C° 0 mm 3 m/s 748 mmHg 46%
17:00 +18°C° 0 mm 2 m/s 748 mmHg 50%
18:00 +16°C° 0 mm 2 m/s 748 mmHg 59%
19:00 +13°C° 0 mm 2 m/s 748 mmHg 68%
20:00 +10°C° 0 mm 2 m/s 748 mmHg 77%
21:00 +10°C° 0 mm 2 m/s 748 mmHg 79%
22:00 +9°C° 0 mm 2 m/s 748 mmHg 81%
23:00 +8°C° 0 mm 2 m/s 748 mmHg 83%

Poimâine, 12 Mai, Miercuri

Timp Temperatura Precipitaţii Vânt Presiune Umiditate
00:00 +8°C° 0 mm 2 m/s 748 mmHg 86%
01:00 +8°C° 0 mm 2 m/s 748 mmHg 88%
02:00 +9°C° 0 mm 1 m/s 748 mmHg 91%
03:00 +9°C° 0 mm 1 m/s 748 mmHg 92%
04:00 +10°C° 0 mm 1 m/s 748 mmHg 92%
05:00 +10°C° 0 mm 1 m/s 748 mmHg 92%
06:00 +12°C° 0 mm 2 m/s 748 mmHg 86%
07:00 +14°C° 0 mm 2 m/s 748 mmHg 80%
08:00 +17°C° 0 mm 2 m/s 748 mmHg 74%
09:00 +18°C° 0 mm 3 m/s 747 mmHg 69%
10:00 +19°C° 0 mm 3 m/s 747 mmHg 63%
11:00 +21°C° 0 mm 4 m/s 747 mmHg 58%
12:00 +21°C° 0.2 mm 4 m/s 746 mmHg 57%
13:00 +21°C° 0.2 mm 5 m/s 745 mmHg 57%
14:00 +22°C° 0.2 mm 5 m/s 745 mmHg 56%
15:00 +21°C° 0.5 mm 5 m/s 744 mmHg 62%
16:00 +19°C° 0.5 mm 5 m/s 744 mmHg 69%
17:00 +17°C° 0.5 mm 5 m/s 743 mmHg 75%
18:00 +16°C° 0.8 mm 5 m/s 743 mmHg 80%
19:00 +15°C° 0.8 mm 5 m/s 742 mmHg 84%
20:00 +14°C° 0.8 mm 5 m/s 742 mmHg 89%
21:00 +13°C° 0.1 mm 5 m/s 742 mmHg 89%
22:00 +12°C° 0.1 mm 5 m/s 743 mmHg 89%
23:00 +10°C° 0.1 mm 5 m/s 743 mmHg 89%

13 Mai, Joi

Timp Temperatura Precipitaţii Vânt Presiune Umiditate
00:00 +8°C° 0 mm 4 m/s 743 mmHg 92%
01:00 +8°C° 0 mm 3 m/s 743 mmHg 94%
02:00 +6°C° 0 mm 2 m/s 744 mmHg 97%
03:00 +6°C° 0 mm 2 m/s 743 mmHg 96%
04:00 +6°C° 0 mm 2 m/s 743 mmHg 95%
05:00 +7°C° 0 mm 2 m/s 743 mmHg 95%
06:00 +8°C° 0 mm 3 m/s 743 mmHg 87%
07:00 +10°C° 0 mm 3 m/s 743 mmHg 79%
08:00 +12°C° 0 mm 4 m/s 742 mmHg 72%
09:00 +12°C° 0.1 mm 4 m/s 742 mmHg 72%
10:00 +13°C° 0.1 mm 4 m/s 742 mmHg 72%
11:00 +13°C° 0.1 mm 4 m/s 742 mmHg 71%
12:00 +14°C° 0.1 mm 4 m/s 742 mmHg 68%
13:00 +15°C° 0.1 mm 4 m/s 741 mmHg 65%
14:00 +17°C° 0.1 mm 4 m/s 741 mmHg 62%
15:00 +17°C° 0.1 mm 4 m/s 741 mmHg 63%
16:00 +17°C° 0.1 mm 3 m/s 741 mmHg 64%
17:00 +16°C° 0.1 mm 3 m/s 741 mmHg 65%
18:00 +15°C° 0 mm 2 m/s 741 mmHg 73%
19:00 +13°C° 0 mm 2 m/s 741 mmHg 80%
20:00 +12°C° 0 mm 2 m/s 741 mmHg 88%
21:00 +10°C° 0 mm 2 m/s 741 mmHg 90%
22:00 +10°C° 0 mm 1 m/s 741 mmHg 92%
23:00 +10°C° 0 mm 1 m/s 742 mmHg 94%

14 Mai, Vineri

Timp Temperatura Precipitaţii Vânt Presiune Umiditate
00:00 +9°C° 0 mm 1 m/s 742 mmHg 94%
01:00 +9°C° 0 mm 1 m/s 742 mmHg 94%
02:00 +9°C° 0 mm 1 m/s 742 mmHg 95%
03:00 +9°C° 0 mm 1 m/s 741 mmHg 94%
04:00 +8°C° 0 mm 2 m/s 741 mmHg 92%
05:00 +9°C° 0 mm 2 m/s 741 mmHg 91%
06:00 +12°C° 0 mm 2 m/s 741 mmHg 86%
07:00 +12°C° 0 mm 3 m/s 741 mmHg 81%
08:00 +14°C° 0 mm 3 m/s 741 mmHg 75%
09:00 +17°C° 0 mm 4 m/s 740 mmHg 70%
10:00 +19°C° 0 mm 4 m/s 740 mmHg 64%
11:00 +20°C° 0 mm 4 m/s 740 mmHg 59%
12:00 +20°C° 0.2 mm 4 m/s 740 mmHg 61%
13:00 +20°C° 0.2 mm 4 m/s 739 mmHg 64%
14:00 +20°C° 0.2 mm 4 m/s 739 mmHg 66%
15:00 +20°C° 0.4 mm 4 m/s 738 mmHg 69%
16:00 +20°C° 0.4 mm 4 m/s 737 mmHg 72%
17:00 +19°C° 0.4 mm 4 m/s 737 mmHg 75%
18:00 +18°C° 1.1 mm 4 m/s 736 mmHg 81%
19:00 +17°C° 1.1 mm 4 m/s 736 mmHg 86%
20:00 +16°C° 1.1 mm 3 m/s 736 mmHg 92%
21:00 +16°C° 0.2 mm 3 m/s 736 mmHg 94%
22:00 +14°C° 0.2 mm 3 m/s 735 mmHg 95%
23:00 +14°C° 0.2 mm 2 m/s 735 mmHg 97%

15 Mai, Sâmbătă

Timp Temperatura Precipitaţii Vânt Presiune Umiditate
00:00 +14°C° 0 mm 2 m/s 736 mmHg 97%
01:00 +13°C° 0 mm 2 m/s 736 mmHg 98%
02:00 +13°C° 0 mm 2 m/s 736 mmHg 98%
03:00 +13°C° 0 mm 2 m/s 736 mmHg 98%
04:00 +13°C° 0 mm 2 m/s 736 mmHg 97%
05:00 +13°C° 0 mm 2 m/s 736 mmHg 97%
06:00 +14°C° 0 mm 2 m/s 736 mmHg 92%
07:00 +15°C° 0 mm 2 m/s 736 mmHg 87%
08:00 +16°C° 0 mm 2 m/s 737 mmHg 83%
09:00 +18°C° 0 mm 2 m/s 737 mmHg 74%
10:00 +19°C° 0 mm 2 m/s 737 mmHg 66%
11:00 +20°C° 0 mm 3 m/s 737 mmHg 57%
12:00 +21°C° 0 mm 2 m/s 737 mmHg 54%
13:00 +23°C° 0 mm 2 m/s 737 mmHg 51%
14:00 +23°C° 0 mm 2 m/s 737 mmHg 48%
15:00 +23°C° 0 mm 2 m/s 737 mmHg 51%
16:00 +23°C° 0 mm 1 m/s 737 mmHg 55%
17:00 +22°C° 0 mm 1 m/s 736 mmHg 59%
18:00 +20°C° 0.1 mm 1 m/s 736 mmHg 67%
19:00 +18°C° 0.1 mm 1 m/s 736 mmHg 74%
20:00 +16°C° 0.1 mm 1 m/s 736 mmHg 82%
21:00 +15°C° 0.3 mm 1 m/s 736 mmHg 85%
22:00 +15°C° 0.3 mm 1 m/s 735 mmHg 88%
23:00 +14°C° 0.3 mm 1 m/s 735 mmHg 91%
Arată mai mult

Formular de consimțământ

Meteoprog și furnizorii noștri de servicii pot stoca și accesa date personale, precum cookies, identificatori de dispozitiv sau alte tehnologii similare pe dispozitivul dumneavoastră și procesa astfel de date pentru a personaliza conținutul și reclamele, dar și pentru a oferi caracteristici de social media și pentru a analiza traficul.

  • Stocarea și/sau accesarea informațiilor pe dispozitivul dumneavoastră

    Cookies, identificatori de dispozitiv sau alte informații pot fi stocate sau accesate pe dispozitiv în scopurile indicate mai sus.

  • Reclame și conținut personalizat, evaluarea reclamelor și a conținutului, informații despre audiențe și dezvoltarea produselor

    Reclamele și conținutul pot fi personalizate pe baza unui profil. Pot fi adăugate date suplimentare pentru a personaliza mai bine reclamele și conținutul. Performanța reclamelor și conținutului poate fi măsurată. Pot fi obținute informații despre utilizatorii care au văzut reclamele și conținutul. Aceste date pot fi utilizate pentru a dezvolta sau îmbunătăți experiența utilizatorilor, sistemele și software-ul.

Dând clic pe ‘Sunt de acord’, permiteți utilizarea cookie-urilor menționate, a identificatorilor de dispozitiv, balizelor web sau altor tehnologii similare. Setările pot fi modificate din browser-ul dispozitivului dumneavoastră.

În anumite scopuri, interesele legitime pot prima asupra consimțământului. Puteți citi mai multe informații în acest sens în Politica privind Confidențialitatea Datelor și Cookie.